Location: Newark
(7.0858°N, 171.3717°E)
Time: 20:51:59
(UTC+00:00)

Vanguard 2 - Pass Details

Date: 01 December 2020
Orbit: 553 x 2937 km, 32.9° (Epoch: 17 January)

Event Time Altitude Azimuth Distance (km) Brightness Sun altitude
Rises 14:07:24 0° 210° (SSW) 6,704 12.3 -60.9°
Reaches altitude 10° 14:14:33 10° 193° (SSW) 5,767 12.0 -59.4°
Maximum altitude 14:24:56 18° 157° (SSE) 4,938 11.8 -57.2°
Drops below altitude 10° 14:34:11 10° 120° (ESE) 5,143 12.1 -55.2°
Sets 14:39:47 0° 102° (ESE) 5,752 12.5 -54.0°
